,,,PA_Meas_PMT16A,,PR_Meas_QMR101_102,,RH_Meas_QMH101,,SR_Meas_QMS101,,TA_Meas_QMH101,,GenWind,,GenWind,
date,time,status,PA,status,PR,status,RH,status,SR,status,TA,status,DirAvg,status,SpdAvg,
2010-05-05, 00:00:04,VALID,1002.35,VALID,0,VALID,87.1371,VALID,0,VALID,26.9967,VALID,72,VALID,0.253125,
2010-05-05, 00:01:04,VALID,1002.36,VALID,0,VALID,87.343,VALID,0,VALID,26.9362,VALID,72,VALID,0.439844,
2010-05-05, 00:02:04,VALID,1002.36,VALID,0,VALID,87.3659,VALID,0,VALID,26.8973,VALID,92,VALID,0.433594,
2010-05-05, 00:03:04,VALID,1002.37,VALID,0,VALID,87.5185,VALID,0,VALID,26.8388,VALID,69,VALID,0.460156,
2010-05-05, 00:04:04,VALID,1002.34,VALID,0,VALID,87.8466,VALID,0,VALID,26.7804,VALID,54,VALID,0.276172,
2010-05-05, 00:05:04,VALID,1002.3,VALID,0,VALID,87.8389,VALID,0,VALID,26.7414,VALID,54,VALID,0.217187,
2010-05-05, 00:06:04,VALID,1002.27,VALID,0,VALID,88.1288,VALID,0,VALID,26.683,VALID,54,VALID,0.0761719,
2010-05-05, 00:07:04,VALID,1002.29,VALID,0,VALID,88.4111,VALID,0,VALID,26.646,VALID,54,VALID,0,
2010-05-05, 00:08:04,VALID,1002.25,VALID,0,VALID,88.762,VALID,0,VALID,26.5855,VALID,54,VALID,0,
2010-05-05, 00:09:04,VALID,1002.24,VALID,0,VALID,88.968,VALID,0,VALID,26.5251,VALID,54,VALID,0,
2010-05-05, 00:10:04,VALID,1002.24,VALID,0,VALID,89.2808,VALID,0,VALID,26.5271,VALID,54,VALID,0,
2010-05-05, 00:11:04,VALID,1002.24,VALID,0,VALID,89.3037,VALID,0,VALID,26.4881,VALID,53,VALID,0.544141,
2010-05-05, 00:12:04,VALID,1002.27,VALID,0,VALID,89.6393,VALID,0,VALID,26.4102,VALID,53,VALID,0.0269531,
2010-05-05, 00:13:04,VALID,1002.26,VALID,0,VALID,89.7385,VALID,0,VALID,26.3303,VALID,45,VALID,0.345313,
2010-05-05, 00:14:04,VALID,1002.26,VALID,0,VALID,90.7532,VALID,0,VALID,26.2933,VALID,45,VALID,0.227734,
2010-05-05, 00:15:04,VALID,1002.3,VALID,0,VALID,92.4315,VALID,0,VALID,26.2544,VALID,45,VALID,0.121484,
2010-05-05, 00:16:04,VALID,1002.29,VALID,0,VALID,92.3781,VALID,0,VALID,26.2544,VALID,45,VALID,0.457031,
2010-05-05, 00:17:04,VALID,1002.27,VALID,0,VALID,92.5993,VALID,0,VALID,26.1959,VALID,45,VALID,0.179297,
2010-05-05, 00:18:04,VALID,1002.29,VALID,0,VALID,92.9198,VALID,0,VALID,26.1765,VALID,45,VALID,0.151562,
2010-05-05, 00:19:04,VALID,1002.27,VALID,0,VALID,93.2478,VALID,0,VALID,26.157,VALID,45,VALID,0.059375,
2010-05-05, 00:20:04,VALID,1002.26,VALID,0,VALID,93.2707,VALID,0,VALID,26.0966,VALID,45,VALID,0,
2010-05-05, 00:21:04,VALID,1002.32,VALID,0,VALID,93.4309,VALID,0,VALID,26.0985,VALID,45,VALID,0,
2010-05-05, 00:22:04,VALID,1002.26,VALID,0,VALID,93.6369,VALID,0,VALID,26.0596,VALID,45,VALID,0,
2010-05-05, 00:23:04,VALID,1002.26,VALID,0,VALID,93.7895,VALID,0,VALID,26.0401,VALID,45,VALID,0,
2010-05-05, 00:24:04,VALID,1002.27,VALID,0,VALID,93.9039,VALID,0,VALID,26.0206,VALID,45,VALID,0.122656,
2010-05-05, 00:25:04,VALID,1002.24,VALID,0,VALID,94.0107,VALID,0,VALID,26.0012,VALID,45,VALID,0.168359,
2010-05-05, 00:26:04,VALID,1002.23,VALID,0,VALID,94.209,VALID,0,VALID,25.9817,VALID,45,VALID,0.2125,
2010-05-05, 00:27:04,VALID,1002.24,VALID,0,VALID,94.3692,VALID,0,VALID,25.9817,VALID,45,VALID,0.137109,
2010-05-05, 00:28:04,VALID,1002.22,VALID,0,VALID,94.3769,VALID,0,VALID,25.9427,VALID,45,VALID,0.383984,
2010-05-05, 00:29:04,VALID,1002.21,VALID,0,VALID,94.3692,VALID,0,VALID,25.9038,VALID,45,VALID,0.0984375,
2010-05-05, 00:30:04,VALID,1002.22,VALID,0,VALID,94.354,VALID,0,VALID,25.8843,VALID,45,VALID,0,
2010-05-05, 00:31:04,VALID,1002.23,VALID,0,VALID,94.2396,VALID,0,VALID,25.8044,VALID,45,VALID,0.0730469,
2010-05-05, 00:32:04,VALID,1002.21,VALID,0,VALID,94.3464,VALID,0,VALID,25.7869,VALID,45,VALID,0,
2010-05-05, 00:33:04,VALID,1002.23,VALID,0,VALID,94.4989,VALID,0,VALID,25.746,VALID,45,VALID,0,
2010-05-05, 00:34:04,VALID,1002.22,VALID,0,VALID,94.6668,VALID,0,VALID,25.7674,VALID,45,VALID,0,
2010-05-05, 00:35:04,VALID,1002.2,VALID,0,VALID,94.827,VALID,0,VALID,25.748,VALID,45,VALID,0.141406,
2010-05-05, 00:36:04,VALID,1002.21,VALID,0,VALID,94.9643,VALID,0,VALID,25.748,VALID,45,VALID,0.164063,
2010-05-05, 00:37:04,VALID,1002.21,VALID,0,VALID,95.0558,VALID,0,VALID,25.7071,VALID,45,VALID,0.310937,
2010-05-05, 00:38:04,VALID,1002.23,VALID,0,VALID,95.1245,VALID,0,VALID,25.709,VALID,45,VALID,0.265234,
2010-05-05, 00:39:04,VALID,1002.24,VALID,0,VALID,95.2542,VALID,0,VALID,25.709,VALID,45,VALID,0.0109375,
2010-05-05, 00:40:04,VALID,1002.21,VALID,0,VALID,95.3076,VALID,0,VALID,25.67,VALID,45,VALID,0.242578,
2010-05-05, 00:41:04,VALID,1002.22,VALID,0,VALID,95.3229,VALID,0,VALID,25.6506,VALID,45,VALID,0.317969,
2010-05-05, 00:42:04,VALID,1002.23,VALID,0,VALID,95.3686,VALID,0,VALID,25.6506,VALID,45,VALID,0.0695312,
2010-05-05, 00:43:04,VALID,1002.23,VALID,0,VALID,95.422,VALID,0,VALID,25.6311,VALID,45,VALID,0.268359,
2010-05-05, 00:44:04,VALID,1002.25,VALID,0,VALID,95.5822,VALID,0,VALID,25.6486,VALID,45,VALID,0.256641,
2010-05-05, 00:45:04,VALID,1002.22,VALID,0,VALID,95.6738,VALID,0,VALID,25.6681,VALID,40,VALID,0.206641,
2010-05-05, 00:46:04,VALID,1002.23,VALID,0,VALID,95.6662,VALID,0,VALID,25.6681,VALID,40,VALID,0.00859375,
2010-05-05, 00:47:04,VALID,1002.25,VALID,0,VALID,95.6585,VALID,0.100563,VALID,25.6876,VALID,40,VALID,0.178125,
2010-05-05, 00:48:04,VALID,1002.23,VALID,0,VALID,95.567,VALID,0,VALID,25.6486,VALID,40,VALID,0.115234,
2010-05-05, 00:49:04,VALID,1002.21,VALID,0,VALID,95.5212,VALID,0.100563,VALID,25.6486,VALID,40,VALID,0.234766,
2010-05-05, 00:50:04,VALID,1002.22,VALID,0,VALID,95.506,VALID,0,VALID,25.6311,VALID,40,VALID,0.104297,
2010-05-05, 00:51:04,VALID,1002.17,VALID,0,VALID,95.5441,VALID,0,VALID,25.5902,VALID,40,VALID,0.276563,
2010-05-05, 00:52:04,VALID,1002.15,VALID,0,VALID,95.5517,VALID,0,VALID,25.5707,VALID,40,VALID,0.166016,
2010-05-05, 00:53:04,VALID,1002.11,VALID,0,VALID,95.5975,VALID,0,VALID,25.5727,VALID,40,VALID,0.225781,
2010-05-05, 00:54:04,VALID,1002.09,VALID,0,VALID,95.6204,VALID,0,VALID,25.5727,VALID,40,VALID,0.456641,
2010-05-05, 00:55:04,VALID,1002.05,VALID,0,VALID,95.6662,VALID,0,VALID,25.5513,VALID,40,VALID,0.386719,
2010-05-05, 00:56:04,VALID,1001.99,VALID,0,VALID,95.7882,VALID,0.100563,VALID,25.5707,VALID,40,VALID,0.492578,
2010-05-05, 00:57:04,VALID,1001.97,VALID,0,VALID,95.8645,VALID,0,VALID,25.6136,VALID,40,VALID,0.471094,
2010-05-05, 00:58:04,VALID,1001.95,VALID,0,VALID,95.8721,VALID,0.100563,VALID,25.5902,VALID,40,VALID,0.446094,
2010-05-05, 00:59:04,VALID,1001.92,VALID,0,VALID,95.8874,VALID,0,VALID,25.6097,VALID,40,VALID,0.397266,
2010-05-05, 01:00:04,VALID,1001.91,VALID,0,VALID,95.9408,VALID,0.100563,VALID,25.6292,VALID,40,VALID,0.524219,
2010-05-05, 01:01:04,VALID,1001.86,VALID,0,VALID,95.9484,VALID,0.100563,VALID,25.6895,VALID,40,VALID,0.235547,
2010-05-05, 01:02:04,VALID,1001.83,VALID,0,VALID,96.0095,VALID,0,VALID,25.6876,VALID,40,VALID,0.185937,
2010-05-05, 01:03:04,VALID,1001.8,VALID,0,VALID,95.9484,VALID,0,VALID,25.6662,VALID,40,VALID,0.394922,
2010-05-05, 01:04:04,VALID,1001.8,VALID,0,VALID,95.9027,VALID,0.100563,VALID,25.7071,VALID,40,VALID,0.109375,
2010-05-05, 01:05:04,VALID,1001.78,VALID,0,VALID,95.8645,VALID,0.100563,VALID,25.748,VALID,40,VALID,0.405078,
2010-05-05, 01:06:04,VALID,1001.77,VALID,0,VALID,95.8416,VALID,0.100563,VALID,25.744,VALID,40,VALID,0.188281,
2010-05-05, 01:07:04,VALID,1001.75,VALID,0,VALID,95.8264,VALID,0,VALID,25.7655,VALID,45,VALID,0.336719,
2010-05-05, 01:08:04,VALID,1001.76,VALID,0,VALID,95.7882,VALID,0.100563,VALID,25.785,VALID,45,VALID,0.402734,
2010-05-05, 01:09:04,VALID,1001.73,VALID,0,VALID,95.7272,VALID,0,VALID,25.785,VALID,45,VALID,0.405859,
2010-05-05, 01:10:04,VALID,1001.7,VALID,0,VALID,95.6356,VALID,0.100563,VALID,25.746,VALID,45,VALID,0.109375,
2010-05-05, 01:11:04,VALID,1001.66,VALID,0,VALID,95.5975,VALID,0.100563,VALID,25.744,VALID,45,VALID,0.350781,
2010-05-05, 01:12:04,VALID,1001.62,VALID,0,VALID,95.5594,VALID,0,VALID,25.7674,VALID,45,VALID,0.152734,
2010-05-05, 01:13:04,VALID,1001.59,VALID,0,VALID,95.5441,VALID,0.100563,VALID,25.7655,VALID,45,VALID,0.0304688,
2010-05-05, 01:14:04,VALID,1001.54,VALID,0,VALID,95.5441,VALID,0.100563,VALID,25.7655,VALID,45,VALID,0,
2010-05-05, 01:15:04,VALID,1001.53,VALID,0,VALID,95.5899,VALID,0.100563,VALID,25.785,VALID,45,VALID,0.334375,
2010-05-05, 01:16:04,VALID,1001.51,VALID,0,VALID,95.567,VALID,0,VALID,25.785,VALID,45,VALID,0.105469,
2010-05-05, 01:17:04,VALID,1001.49,VALID,0,VALID,95.5975,VALID,0,VALID,25.8259,VALID,45,VALID,0.128516,
2010-05-05, 01:18:04,VALID,1001.49,VALID,0,VALID,95.5899,VALID,0.100563,VALID,25.8259,VALID,45,VALID,0.517969,
2010-05-05, 01:19:04,VALID,1001.5,VALID,0,VALID,95.5517,VALID,0,VALID,25.8044,VALID,45,VALID,0.0820313,
2010-05-05, 01:20:04,VALID,1001.47,VALID,0,VALID,95.5288,VALID,0,VALID,25.785,VALID,45,VALID,0.363672,
2010-05-05, 01:21:04,VALID,1001.47,VALID,0,VALID,95.4602,VALID,0,VALID,25.785,VALID,45,VALID,0.198047,
2010-05-05, 01:22:04,VALID,1001.48,VALID,0,VALID,95.4526,VALID,0.100563,VALID,25.785,VALID,61,VALID,0.4375,
2010-05-05, 01:23:04,VALID,1001.46,VALID,0,VALID,95.4449,VALID,0.100563,VALID,25.7655,VALID,61,VALID,0.494922,
2010-05-05, 01:24:04,VALID,1001.43,VALID,0,VALID,95.4983,VALID,0,VALID,25.8064,VALID,35,VALID,0.605469,
2010-05-05, 01:25:04,VALID,1001.42,VALID,0,VALID,95.5288,VALID,0,VALID,25.8239,VALID,36,VALID,0.223828,
2010-05-05, 01:26:04,VALID,1001.37,VALID,0,VALID,95.5441,VALID,0.100563,VALID,25.8239,VALID,36,VALID,0.438672,
2010-05-05, 01:27:04,VALID,1001.37,VALID,0,VALID,95.5288,VALID,0.100563,VALID,25.8629,VALID,36,VALID,0.298047,
2010-05-05, 01:28:04,VALID,1001.36,VALID,0,VALID,95.567,VALID,0,VALID,25.9038,VALID,36,VALID,0.695703,
2010-05-05, 01:29:04,VALID,1001.36,VALID,0,VALID,95.5975,VALID,0,VALID,25.9817,VALID,85,VALID,0.394922,
2010-05-05, 01:30:04,VALID,1001.35,VALID,0,VALID,95.5136,VALID,0.100563,VALID,26.0187,VALID,85,VALID,0.303125,
2010-05-05, 01:31:04,VALID,1001.35,VALID,0,VALID,95.3763,VALID,0.100563,VALID,26.0576,VALID,85,VALID,0.204688,
2010-05-05, 01:32:04,VALID,1001.33,VALID,0,VALID,95.1779,VALID,0,VALID,26.0751,VALID,85,VALID,0.252344,
2010-05-05, 01:33:04,VALID,1001.35,VALID,0,VALID,94.949,VALID,0.100563,VALID,26.1375,VALID,85,VALID,0.266016,
2010-05-05, 01:34:04,VALID,1001.33,VALID,0,VALID,94.7125,VALID,0.100563,VALID,26.116,VALID,85,VALID,0.254297,
2010-05-05, 01:35:04,VALID,1001.34,VALID,0,VALID,94.5142,VALID,0,VALID,26.0966,VALID,85,VALID,0.323828,
2010-05-05, 01:36:04,VALID,1001.33,VALID,0,VALID,94.354,VALID,0.100563,VALID,26.0771,VALID,85,VALID,0.425,
2010-05-05, 01:37:04,VALID,1001.29,VALID,0,VALID,94.3082,VALID,0,VALID,26.0596,VALID,84,VALID,0.293359,
2010-05-05, 01:38:04,VALID,1001.32,VALID,0,VALID,94.3158,VALID,0.100563,VALID,26.0187,VALID,84,VALID,0.252344,
2010-05-05, 01:39:04,VALID,1001.32,VALID,0,VALID,94.4455,VALID,0,VALID,26.0206,VALID,84,VALID,0.146094,
2010-05-05, 01:40:04,VALID,1001.31,VALID,0,VALID,94.5752,VALID,0.100563,VALID,25.9992,VALID,84,VALID,0.102344,
2010-05-05, 01:41:04,VALID,1001.33,VALID,0,VALID,94.6439,VALID,0.100563,VALID,25.9797,VALID,85,VALID,0.328516,
2010-05-05, 01:42:04,VALID,1001.36,VALID,0,VALID,94.621,VALID,0.100563,VALID,25.9602,VALID,85,VALID,0.388672,
2010-05-05, 01:43:04,VALID,1001.34,VALID,0,VALID,94.6439,VALID,0.100563,VALID,25.9408,VALID,85,VALID,0.348437,
2010-05-05, 01:44:04,VALID,1001.36,VALID,0,VALID,94.6363,VALID,0.100563,VALID,25.9018,VALID,85,VALID,0.266016,
2010-05-05, 01:45:04,VALID,1001.39,VALID,0,VALID,94.6363,VALID,0.100563,VALID,25.8434,VALID,85,VALID,0.144531,
2010-05-05, 01:46:04,VALID,1001.35,VALID,0,VALID,94.7278,VALID,0,VALID,25.8434,VALID,85,VALID,0.320703,
2010-05-05, 01:47:04,VALID,1001.34,VALID,0,VALID,94.8041,VALID,0,VALID,25.8259,VALID,85,VALID,0,
2010-05-05, 01:48:04,VALID,1001.32,VALID,0,VALID,94.8804,VALID,0,VALID,25.785,VALID,85,VALID,0,
2010-05-05, 01:49:04,VALID,1001.31,VALID,0,VALID,94.9338,VALID,0.100563,VALID,25.7655,VALID,85,VALID,0,
2010-05-05, 01:50:04,VALID,1001.31,VALID,0,VALID,95.0101,VALID,0.100563,VALID,25.7869,VALID,85,VALID,0,
2010-05-05, 01:51:04,VALID,1001.32,VALID,0,VALID,95.0177,VALID,0,VALID,25.7265,VALID,189,VALID,0.469531,
2010-05-05, 01:52:04,VALID,1001.34,VALID,0,VALID,95.0635,VALID,0,VALID,25.6876,VALID,189,VALID,0.071875,
2010-05-05, 01:53:04,VALID,1001.36,VALID,0,VALID,95.1245,VALID,0,VALID,25.6681,VALID,189,VALID,0.188281,
2010-05-05, 01:54:04,VALID,1001.37,VALID,0,VALID,95.2161,VALID,0,VALID,25.6486,VALID,189,VALID,0,
2010-05-05, 01:55:04,VALID,1001.35,VALID,0,VALID,95.2618,VALID,0,VALID,25.6292,VALID,189,VALID,0.154297,
2010-05-05, 01:56:04,VALID,1001.31,VALID,0,VALID,95.3229,VALID,0,VALID,25.6097,VALID,189,VALID,0.148047,
2010-05-05, 01:57:05,VALID,1001.31,VALID,0,VALID,95.3915,VALID,0,VALID,25.5902,VALID,189,VALID,0.00507812,
2010-05-05, 01:58:05,VALID,1001.29,VALID,0,VALID,95.4373,VALID,0,VALID,25.5493,VALID,189,VALID,0.123047,
2010-05-05, 01:59:05,VALID,1001.27,VALID,0,VALID,95.4678,VALID,0,VALID,25.5707,VALID,189,VALID,0.287109,
2010-05-05, 02:00:05,VALID,1001.3,VALID,0,VALID,95.5288,VALID,0.100563,VALID,25.5707,VALID,189,VALID,0.255469,
2010-05-05, 02:01:05,VALID,1001.29,VALID,0,VALID,95.5975,VALID,0.100563,VALID,25.5513,VALID,189,VALID,0.316406,
2010-05-05, 02:02:05,VALID,1001.29,VALID,0,VALID,95.5975,VALID,0,VALID,25.5318,VALID,189,VALID,0.530469,
2010-05-05, 02:03:05,VALID,1001.27,VALID,0,VALID,95.5822,VALID,0,VALID,25.4928,VALID,189,VALID,0.342578,
2010-05-05, 02:04:05,VALID,1001.27,VALID,0,VALID,95.6204,VALID,0,VALID,25.4734,VALID,189,VALID,0.237891,
2010-05-05, 02:05:05,VALID,1001.26,VALID,0,VALID,95.6509,VALID,0.100563,VALID,25.4558,VALID,189,VALID,0.457422,
2010-05-05, 02:06:05,VALID,1001.22,VALID,0,VALID,95.6662,VALID,0.100563,VALID,25.3955,VALID,189,VALID,0.308984,
2010-05-05, 02:07:05,VALID,1001.24,VALID,0,VALID,95.7424,VALID,0,VALID,25.376,VALID,189,VALID,0.416797,
2010-05-05, 02:08:05,VALID,1001.2,VALID,0,VALID,95.7959,VALID,0,VALID,25.3565,VALID,18,VALID,0.691016,
2010-05-05, 02:09:05,VALID,1001.17,VALID,0,VALID,95.9408,VALID,0,VALID,25.376,VALID,12,VALID,0.357812,
2010-05-05, 02:10:05,VALID,1001.16,VALID,0,VALID,96.0629,VALID,0.100563,VALID,25.3955,VALID,12,VALID,0.488672,
2010-05-05, 02:11:05,VALID,1001.1,VALID,0,VALID,96.1163,VALID,0,VALID,25.4363,VALID,12,VALID,0.385938,
2010-05-05, 02:12:05,VALID,1001.07,VALID,0,VALID,96.2002,VALID,0.100563,VALID,25.4344,VALID,10,VALID,0.476563,
2010-05-05, 02:13:05,VALID,1001.02,VALID,0,VALID,96.2688,VALID,0.100563,VALID,25.4928,VALID,4,VALID,0.448828,
2010-05-05, 02:14:05,VALID,1001.03,VALID,0,VALID,96.3604,VALID,0.100563,VALID,25.4928,VALID,2,VALID,0.24375,
2010-05-05, 02:15:05,VALID,1001,VALID,0,VALID,96.368,VALID,0,VALID,25.4928,VALID,2,VALID,0.230859,
2010-05-05, 02:16:05,VALID,1001.02,VALID,0,VALID,96.3833,VALID,0,VALID,25.5123,VALID,2,VALID,0,
2010-05-05, 02:17:05,VALID,1001,VALID,0,VALID,96.3604,VALID,0,VALID,25.4928,VALID,2,VALID,0.224219,
2010-05-05, 02:18:05,VALID,1001.04,VALID,0,VALID,96.3756,VALID,0,VALID,25.4734,VALID,2,VALID,0.469141,
2010-05-05, 02:19:05,VALID,1001.08,VALID,0,VALID,96.3375,VALID,0,VALID,25.4753,VALID,2,VALID,0.238672,
2010-05-05, 02:20:05,VALID,1001.12,VALID,0,VALID,96.3299,VALID,0.100563,VALID,25.4539,VALID,2,VALID,0.601172,
2010-05-05, 02:21:05,VALID,1001.16,VALID,0,VALID,96.3299,VALID,0,VALID,25.4753,VALID,2,VALID,0.365234,
2010-05-05, 02:22:05,VALID,1001.2,VALID,0,VALID,96.3222,VALID,0.100563,VALID,25.4344,VALID,2,VALID,0.60625,
2010-05-05, 02:23:05,VALID,1001.22,VALID,0,VALID,96.3222,VALID,0,VALID,25.4558,VALID,2,VALID,0.341797,
2010-05-05, 02:24:05,VALID,1001.28,VALID,0,VALID,96.3146,VALID,0,VALID,25.3955,VALID,2,VALID,0.375781,
2010-05-05, 02:25:05,VALID,1001.3,VALID,0,VALID,96.2994,VALID,0,VALID,25.3974,VALID,2,VALID,0.435156,
2010-05-05, 02:26:05,VALID,1001.31,VALID,0,VALID,96.2917,VALID,0.100563,VALID,25.376,VALID,2,VALID,0.285937,
2010-05-05, 02:27:05,VALID,1001.32,VALID,0,VALID,96.3146,VALID,0,VALID,25.376,VALID,2,VALID,0.225,
2010-05-05, 02:28:05,VALID,1001.35,VALID,0,VALID,96.3375,VALID,0.100563,VALID,25.376,VALID,2,VALID,0.241406,
2010-05-05, 02:29:05,VALID,1001.33,VALID,0,VALID,96.3604,VALID,0.100563,VALID,25.3351,VALID,2,VALID,0.105469,
2010-05-05, 02:30:05,VALID,1001.35,VALID,0,VALID,96.3604,VALID,0,VALID,25.3584,VALID,2,VALID,0.166406,
2010-05-05, 02:31:05,VALID,1001.36,VALID,0,VALID,96.3756,VALID,0,VALID,25.337,VALID,2,VALID,0.164844,
2010-05-05, 02:32:05,VALID,1001.41,VALID,0,VALID,96.4062,VALID,0,VALID,25.3779,VALID,2,VALID,0.471484,
2010-05-05, 02:33:05,VALID,1001.41,VALID,0,VALID,96.4443,VALID,0,VALID,25.4169,VALID,49,VALID,0.609375,
2010-05-05, 02:34:05,VALID,1001.42,VALID,0,VALID,96.4901,VALID,0,VALID,25.4558,VALID,56,VALID,0.383203,
2010-05-05, 02:35:05,VALID,1001.48,VALID,0,VALID,96.513,VALID,0,VALID,25.4169,VALID,56,VALID,0.146875,
2010-05-05, 02:36:05,VALID,1001.45,VALID,0,VALID,96.4901,VALID,0,VALID,25.3974,VALID,56,VALID,0,
2010-05-05, 02:37:05,VALID,1001.43,VALID,0,VALID,96.513,VALID,0,VALID,25.4188,VALID,56,VALID,0.115234,
2010-05-05, 02:38:05,VALID,1001.38,VALID,0,VALID,96.5282,VALID,0,VALID,25.4363,VALID,56,VALID,0.201953,
2010-05-05, 02:39:05,VALID,1001.38,VALID,0,VALID,96.5359,VALID,0,VALID,25.4363,VALID,56,VALID,0.00351562,
2010-05-05, 02:40:05,VALID,1001.36,VALID,0,VALID,96.5587,VALID,0,VALID,25.4344,VALID,56,VALID,0.20625,
2010-05-05, 02:41:05,VALID,1001.33,VALID,0,VALID,96.5511,VALID,0,VALID,25.4948,VALID,56,VALID,0.309375,
2010-05-05, 02:42:05,VALID,1001.35,VALID,0,VALID,96.5587,VALID,0,VALID,25.4948,VALID,56,VALID,0.192578,
2010-05-05, 02:43:05,VALID,1001.36,VALID,0,VALID,96.5969,VALID,0,VALID,25.4734,VALID,56,VALID,0.150391,
2010-05-05, 02:44:05,VALID,1001.38,VALID,0,VALID,96.5816,VALID,0,VALID,25.4539,VALID,56,VALID,0.303125,
2010-05-05, 02:45:05,VALID,1001.44,VALID,0,VALID,96.5893,VALID,0.100563,VALID,25.4734,VALID,56,VALID,0.187891,
2010-05-05, 02:46:05,VALID,1001.46,VALID,0,VALID,96.5664,VALID,0.100563,VALID,25.4325,VALID,56,VALID,0.317187,
2010-05-05, 02:47:05,VALID,1001.48,VALID,0,VALID,96.5587,VALID,0.100563,VALID,25.4539,VALID,56,VALID,0.380859,
2010-05-05, 02:48:05,VALID,1001.5,VALID,0,VALID,96.5435,VALID,0.100563,VALID,25.4344,VALID,56,VALID,0.262891,
2010-05-05, 02:49:05,VALID,1001.48,VALID,0,VALID,96.513,VALID,0.100563,VALID,25.4344,VALID,56,VALID,0.267969,
2010-05-05, 02:50:05,VALID,1001.48,VALID,0,VALID,96.513,VALID,0.100563,VALID,25.4344,VALID,56,VALID,0.394922,
2010-05-05, 02:51:05,VALID,1001.46,VALID,0,VALID,96.4977,VALID,0.100563,VALID,25.4734,VALID,50,VALID,0.419531,
2010-05-05, 02:52:05,VALID,1001.43,VALID,0,VALID,96.5053,VALID,0.100563,VALID,25.5318,VALID,50,VALID,0.482422,
2010-05-05, 02:53:05,VALID,1001.41,VALID,0,VALID,96.5511,VALID,0,VALID,25.5707,VALID,50,VALID,0.170703,
2010-05-05, 02:54:05,VALID,1001.39,VALID,0,VALID,96.5587,VALID,0.100563,VALID,25.6097,VALID,50,VALID,0.477344,
2010-05-05, 02:55:05,VALID,1001.39,VALID,0,VALID,96.5664,VALID,0,VALID,25.6895,VALID,38,VALID,0.482812,
2010-05-05, 02:56:05,VALID,1001.42,VALID,0,VALID,96.5587,VALID,0.100563,VALID,25.7265,VALID,30,VALID,1.19102,
2010-05-05, 02:57:05,VALID,1001.41,VALID,0,VALID,96.5587,VALID,0.100563,VALID,25.8804,VALID,63,VALID,1.4082,
2010-05-05, 02:58:05,VALID,1001.38,VALID,0,VALID,96.4367,VALID,0.100563,VALID,26.0576,VALID,25,VALID,1.70039,
2010-05-05, 02:59:05,VALID,1001.44,VALID,0,VALID,95.9027,VALID,0.100563,VALID,26.153,VALID,45,VALID,1.66016,
2010-05-05, 03:00:05,VALID,1001.41,VALID,0,VALID,94.6057,VALID,0,VALID,26.2349,VALID,80,VALID,2.1793,
2010-05-05, 03:01:05,VALID,1001.39,VALID,0,VALID,92.5688,VALID,0,VALID,26.2154,VALID,27,VALID,2.37969,
2010-05-05, 03:02:05,VALID,1001.36,VALID,0,VALID,89.975,VALID,0,VALID,26.1959,VALID,25,VALID,1.78789,
2010-05-05, 03:03:05,VALID,1001.41,VALID,0,VALID,89.8072,VALID,0,VALID,26.1765,VALID,28,VALID,0.881641,
2010-05-05, 03:04:05,VALID,1001.43,VALID,0,VALID,89.8987,VALID,0,VALID,26.116,VALID,58,VALID,0.973437,
2010-05-05, 03:05:05,VALID,1001.45,VALID,0,VALID,89.0443,VALID,0,VALID,26.0791,VALID,55,VALID,1.85938,
2010-05-05, 03:06:05,VALID,1001.44,VALID,0,VALID,89.0824,VALID,0,VALID,26.0226,VALID,41,VALID,0.872656,
2010-05-05, 03:07:05,VALID,1001.49,VALID,0,VALID,88.8002,VALID,0,VALID,25.8843,VALID,73,VALID,1.40859,
2010-05-05, 03:08:05,VALID,1001.52,VALID,0,VALID,89.1664,VALID,0,VALID,25.7655,VALID,54,VALID,0.942969,
2010-05-05, 03:09:05,VALID,1001.5,VALID,0,VALID,88.3424,VALID,0,VALID,25.6525,VALID,66,VALID,1.86875,
2010-05-05, 03:10:05,VALID,1001.57,VALID,0,VALID,88.5637,VALID,0,VALID,25.5532,VALID,56,VALID,1.21328,
2010-05-05, 03:11:05,VALID,1001.51,VALID,0,VALID,87.8084,VALID,0,VALID,25.4558,VALID,65,VALID,1.90195,
2010-05-05, 03:12:05,VALID,1001.45,VALID,0.5,VALID,87.2057,VALID,0,VALID,25.4169,VALID,70,VALID,2.17656,
2010-05-05, 03:13:05,VALID,1001.4,VALID,0,VALID,86.4047,VALID,0,VALID,25.3584,VALID,75,VALID,2.7832,
2010-05-05, 03:14:05,VALID,1001.34,VALID,0,VALID,86.2216,VALID,0,VALID,25.3779,VALID,116,VALID,2.1793,
2010-05-05, 03:15:05,VALID,1001.27,VALID,0,VALID,87.5719,VALID,0.100563,VALID,25.2786,VALID,125,VALID,1.62695,
2010-05-05, 03:16:05,VALID,1001.23,VALID,0,VALID,87.4727,VALID,0.100563,VALID,25.1599,VALID,121,VALID,1.52695,
2010-05-05, 03:17:05,VALID,1001.24,VALID,0,VALID,88.3348,VALID,0.100563,VALID,25.1229,VALID,117,VALID,1.12617,
2010-05-05, 03:18:05,VALID,1001.2,VALID,0,VALID,89.0519,VALID,0,VALID,25.045,VALID,53,VALID,0.564844,
2010-05-05, 03:19:05,VALID,1001.17,VALID,0,VALID,90.4785,VALID,0.100563,VALID,24.9671,VALID,358,VALID,1.23398,
2010-05-05, 03:20:05,VALID,1001.15,VALID,0,VALID,92.2255,VALID,0,VALID,24.8892,VALID,357,VALID,0.966016,
2010-05-05, 03:21:05,VALID,1001.16,VALID,0,VALID,93.202,VALID,0,VALID,24.8308,VALID,23,VALID,1.08125,
2010-05-05, 03:22:05,VALID,1001.17,VALID,0,VALID,93.7132,VALID,0.100563,VALID,24.79,VALID,25,VALID,0.965625,
2010-05-05, 03:23:05,VALID,1001.15,VALID,0,VALID,94.1556,VALID,0,VALID,24.7919,VALID,22,VALID,0.653125,
2010-05-05, 03:24:05,VALID,1001.14,VALID,0,VALID,94.3616,VALID,0.100563,VALID,24.7529,VALID,21,VALID,0.183984,
2010-05-05, 03:25:05,VALID,1001.12,VALID,0,VALID,94.3845,VALID,0.100563,VALID,24.6926,VALID,64,VALID,0.382813,
2010-05-05, 03:26:05,VALID,1001.16,VALID,0,VALID,94.3769,VALID,0.100563,VALID,24.6732,VALID,74,VALID,0.107031,
2010-05-05, 03:27:05,VALID,1001.21,VALID,0,VALID,94.56,VALID,0.100563,VALID,24.6945,VALID,71,VALID,0.359766,
2010-05-05, 03:28:05,VALID,1001.2,VALID,0,VALID,94.5981,VALID,0.100563,VALID,24.6556,VALID,69,VALID,0.0921875,
2010-05-05, 03:29:05,VALID,1001.24,VALID,0,VALID,94.7431,VALID,0.100563,VALID,24.6556,VALID,69,VALID,0.460938,
2010-05-05, 03:30:05,VALID,1001.25,VALID,0,VALID,94.9033,VALID,0,VALID,24.6593,VALID,70,VALID,0.403906,
2010-05-05, 03:31:05,VALID,1001.3,VALID,0,VALID,95.0253,VALID,0,VALID,24.6185,VALID,61,VALID,0.281641,
2010-05-05, 03:32:05,VALID,1001.31,VALID,0,VALID,95.1016,VALID,0,VALID,24.5796,VALID,61,VALID,0.258203,
2010-05-05, 03:33:05,VALID,1001.35,VALID,0,VALID,95.1398,VALID,0,VALID,24.5601,VALID,92,VALID,0.817187,
2010-05-05, 03:34:05,VALID,1001.39,VALID,0,VALID,95.1627,VALID,0,VALID,24.5601,VALID,108,VALID,0.686328,
2010-05-05, 03:35:05,VALID,1001.42,VALID,0,VALID,95.2771,VALID,0,VALID,24.4998,VALID,102,VALID,1.01055,
2010-05-05, 03:36:05,VALID,1001.44,VALID,0,VALID,95.3381,VALID,0,VALID,24.5212,VALID,100,VALID,0.649219,
2010-05-05, 03:37:05,VALID,1001.49,VALID,0,VALID,95.422,VALID,0,VALID,24.5212,VALID,95,VALID,0.215234,
2010-05-05, 03:38:05,VALID,1001.48,VALID,0,VALID,95.4907,VALID,0,VALID,24.5212,VALID,79,VALID,0.851563,
2010-05-05, 03:39:05,VALID,1001.5,VALID,0,VALID,95.5212,VALID,0,VALID,24.523,VALID,71,VALID,1.01328,
2010-05-05, 03:40:05,VALID,1001.52,VALID,0,VALID,95.5899,VALID,0,VALID,24.5212,VALID,51,VALID,0.501953,
2010-05-05, 03:41:05,VALID,1001.53,VALID,0,VALID,95.6585,VALID,0,VALID,24.5406,VALID,47,VALID,0.366797,
2010-05-05, 03:42:05,VALID,1001.53,VALID,0,VALID,95.7577,VALID,0,VALID,24.5601,VALID,30,VALID,0.401563,
2010-05-05, 03:43:05,VALID,1001.51,VALID,0,VALID,95.8111,VALID,0,VALID,24.562,VALID,12,VALID,0.392969,